Theta_e
317 317 317 317 317 317 317 317 318 318 318 318 319 320 320 320 320 321 321 322 322 321 321 322 322 322 322 322 323 323 321 318 319 319 316 321 331 344 347 353 352 356 366 351 352 340 338 337 335 337 336 337 337 334 337 333 330 328 319 318 313 314 313 317 317 321 323 320 319 321 322 323 322 327 329 332 330 332 333 332 336 339 341 342 343 346 347 350
317 317 316 316 316 316 317 317 318 317 318 318 319 319 319 320 320 321 321 321 321 320 320 321 321 322 322 322 323 322 320 319 318 317 316 327 342 345 350 360 360 357 360 343 340 333 331 329 331 334 332 330 338 330 335 327 329 318 320 317 311 315 316 322 322 322 322 321 322 322 325 323 321 325 327 324 325 328 327 330 333 336 339 341 343 345 346 348
316 316 316 316 316 316 316 317 318 318 318 318 319 319 319 320 320 320 320 320 320 320 320 321 321 321 322 322 322 322 319 318 320 318 323 343 344 346 350 355 360 365 343 337 335 334 330 330 331 332 331 329 332 327 329 324 326 323 322 318 317 322 321 322 323 323 325 325 322 321 323 321 322 322 326 323 322 326 323 326 332 333 333 336 341 343 345 346
316 316 316 316 315 316 316 317 317 318 318 318 318 319 319 319 319 319 319 319 320 320 320 320 321 322 322 322 322 320 319 320 313 317 328 359 354 349 350 358 361 362 344 332 329 331 333 332 332 332 330 327 327 327 320 323 320 323 321 315 318 321 317 321 325 325 327 327 324 322 322 319 320 322 325 322 321 322 326 333 332 332 334 336 341 343 344 345
316 315 315 316 316 316 317 317 317 317 317 318 318 318 318 319 319 319 319 319 319 319 319 320 321 322 322 321 320 320 318 305 310 321 332 358 359 356 357 358 362 353 342 331 325 324 327 328 328 329 328 319 324 322 319 320 323 322 319 322 322 322 318 322 326 326 327 327 325 322 319 318 321 322 323 322 320 318 327 334 336 336 337 337 339 342 344 344
315 315 315 315 316 316 316 317 317 317 317 317 317 318 318 318 318 318 318 318 319 319 319 320 321 322 322 321 320 319 311 294 317 324 357 355 354 352 357 357 362 349 339 331 324 321 321 323 326 323 320 319 317 314 318 320 322 312 319 321 323 323 320 323 326 327 328 325 323 320 322 322 319 318 323 321 324 325 335 337 338 338 339 340 341 342 342 343
314 315 315 315 316 316 316 316 316 317 316 317 317 317 317 317 317 317 317 317 318 318 320 320 321 322 321 322 321 319 312 307 314 326 350 360 354 354 358 361 365 347 334 328 326 322 321 321 324 322 318 316 317 316 318 318 321 316 311 322 322 323 321 323 326 328 327 326 323 324 323 320 318 316 321 319 327 332 337 339 339 340 341 341 340 341 341 342
314 314 315 315 315 315 315 315 316 316 316 316 317 317 317 317 317 316 317 317 318 319 320 321 321 321 322 320 317 309 314 313 319 320 354 359 353 353 354 348 341 335 330 326 325 322 323 319 320 323 316 311 314 316 319 318 319 315 312 321 321 322 323 323 321 320 326 326 326 324 321 319 319 319 322 323 329 336 338 340 340 340 339 340 339 339 340 341
314 314 314 314 314 315 315 315 316 315 316 316 316 317 317 317 317 317 317 317 318 319 320 321 321 322 323 319 312 305 304 314 320 323 347 351 343 348 338 331 331 327 326 327 328 326 323 320 320 322 314 314 317 314 316 315 310 316 315 318 321 322 322 321 321 322 324 326 326 323 321 321 322 322 320 325 331 335 338 339 339 339 338 338 338 339 339 340
314 314 314 314 315 315 315 315 315 316 316 316 316 316 316 316 316 316 317 317 318 319 320 321 322 322 319 319 319 304 312 320 325 336 340 338 334 338 334 329 327 324 323 326 328 326 322 320 320 323 321 318 317 314 317 316 313 318 317 317 316 320 322 322 322 323 323 325 325 322 317 317 318 317 315 327 332 335 337 337 337 337 337 338 339 339 339 339
314 314 314 314 314 315 315 315 316 316 316 316 316 315 315 316 316 316 317 317 318 319 320 322 323 322 319 320 310 302 316 316 328 326 330 331 332 330 329 328 325 323 322 323 324 327 326 322 321 322 320 314 316 314 314 315 318 317 317 316 316 319 321 321 321 321 324 323 325 323 318 321 320 320 316 325 332 334 334 335 335 335 336 336 338 338 339 339
314 314 314 314 314 315 315 315 315 315 315 315 315 315 315 316 315 316 316 317 318 319 320 322 323 321 321 318 314 309 320 320 321 331 330 327 328 331 331 327 325 322 321 319 321 325 325 323 321 319 310 317 309 313 312 316 315 315 315 310 312 315 316 319 319 320 322 322 325 325 321 319 317 315 321 327 332 333 333 332 333 334 334 335 337 337 338 338
314 314 314 314 314 314 315 315 315 315 315 314 314 314 315 315 315 315 316 316 318 319 321 323 324 323 320 312 316 322 321 320 319 319 320 325 330 330 330 329 324 324 323 320 319 323 324 323 321 315 317 313 311 306 315 316 315 315 314 311 310 310 310 317 321 320 320 323 324 325 308 311 315 319 321 327 329 331 330 329 331 332 334 334 335 336 337 338
313 313 314 314 313 314 315 315 315 314 314 314 314 313 314 314 314 315 316 317 319 321 323 325 323 322 319 310 316 319 321 322 321 318 318 321 321 322 322 322 321 325 327 323 322 322 322 322 319 316 317 312 309 317 313 312 314 307 311 312 304 303 303 316 318 318 317 321 322 325 309 311 317 319 322 326 329 329 327 328 329 331 333 333 333 335 336 336
314 314 314 314 314 314 314 314 314 313 313 314 313 313 312 312 314 316 318 319 321 324 325 327 322 321 316 315 325 326 344 330 319 317 321 319 318 317 320 320 319 319 319 323 323 324 324 322 318 314 310 316 315 311 307 307 308 309 305 301 305 304 306 314 319 317 313 319 324 321 310 312 318 319 322 324 328 329 326 327 328 329 330 331 333 335 335 335
314 314 314 314 314 314 314 314 313 313 313 313 311 311 313 313 316 317 319 320 323 324 325 323 321 321 317 311 321 342 333 324 321 323 322 322 320 316 318 319 320 319 319 318 321 322 322 322 315 313 313 313 310 306 304 302 303 306 303 303 302 305 305 309 316 318 319 319 321 319 310 316 318 322 323 324 325 327 325 325 327 328 330 330 333 334 333 334
313 314 314 314 314 314 314 313 313 313 312 311 311 311 312 315 318 320 322 323 323 324 324 320 324 322 309 322 331 319 318 324 327 324 323 323 322 320 317 316 316 317 318 318 319 319 318 316 317 315 315 308 307 306 300 298 298 301 304 301 306 304 306 304 314 317 318 319 314 318 313 316 320 323 323 323 324 324 323 324 325 327 329 329 332 333 332 332
313 314 314 314 314 314 314 313 313 312 311 310 310 310 310 316 321 320 323 321 319 324 323 325 321 315 312 322 315 318 321 321 324 324 322 323 322 319 316 314 315 315 315 314 317 313 315 310 312 305 307 307 306 303 299 296 299 299 300 300 303 307 308 308 310 315 318 319 315 315 314 315 318 321 323 323 323 323 322 323 325 325 327 327 330 332 331 332
314 314 314 314 314 314 313 313 312 311 311 310 311 314 318 320 319 319 320 318 318 317 310 312 312 300 299 315 323 325 325 322 323 324 320 321 321 320 318 318 315 312 309 309 310 311 312 309 308 303 301 303 304 304 302 304 306 304 305 304 305 304 305 306 314 318 318 316 315 314 312 314 317 319 323 324 322 320 321 322 324 324 326 326 328 330 331 331
314 313 313 313 313 313 313 312 311 310 309 307 306 308 318 314 314 319 318 319 316 317 317 318 317 314 312 313 316 322 326 325 317 319 320 322 319 316 314 315 313 313 311 305 308 309 312 302 300 300 302 304 307 307 307 308 309 308 307 306 305 307 308 312 313 317 319 315 313 314 315 314 318 319 321 324 322 320 321 320 321 323 325 326 326 329 330 331
313 313 313 313 313 312 312 312 311 310 309 307 306 309 305 306 300 298 303 305 308 311 312 314 318 318 314 319 322 322 318 319 319 317 319 324 319 313 310 311 309 307 308 310 308 311 310 301 301 304 306 307 307 308 308 308 308 307 306 305 304 307 306 313 314 318 319 314 311 315 315 315 316 320 322 324 322 320 320 320 320 322 325 325 325 327 330 332
313 313 313 313 312 312 311 311 310 309 309 307 308 310 313 310 310 311 307 300 306 309 308 308 311 309 315 318 322 323 321 315 315 316 320 320 316 309 310 310 308 305 309 309 308 304 302 300 304 307 309 309 308 308 308 307 306 307 305 305 304 305 310 314 316 318 318 316 310 314 313 314 316 320 322 323 322 323 323 322 322 322 323 324 325 326 329 331
313 313 313 312 312 311 311 310 309 308 307 312 306 305 304 311 314 314 310 304 301 307 306 306 304 305 306 311 313 316 310 309 310 315 317 319 314 312 310 307 306 308 309 308 303 301 298 301 306 309 309 307 307 307 307 307 307 305 305 303 301 306 306 304 313 316 317 315 312 313 312 312 317 320 321 323 324 324 325 325 324 324 323 324 325 326 328 330
313 313 312 312 312 310 311 309 307 309 306 306 305 306 310 313 312 311 306 298 298 303 306 307 307 306 305 305 311 309 307 309 311 311 320 317 311 314 310 308 306 307 306 307 306 303 301 305 309 309 308 306 305 306 305 304 303 306 306 305 304 306 308 308 308 314 317 317 317 314 312 313 314 315 318 322 325 325 325 326 326 326 325 326 327 327 329 330
313 313 313 312 311 311 308 307 308 305 307 308 307 312 313 313 312 312 303 299 300 300 309 307 309 308 309 314 313 307 308 310 312 316 318 317 313 311 309 312 308 304 306 308 307 305 304 308 310 307 306 306 304 303 304 304 300 303 307 307 307 308 307 308 311 312 308 308 314 312 302 303 312 315 317 320 322 322 324 324 324 325 326 326 325 326 328 331
313 313 313 312 312 310 308 303 305 306 306 306 308 312 314 313 313 313 303 295 291 301 308 300 310 305 315 307 310 308 309 304 312 315 318 318 319 313 312 308 309 303 306 307 306 306 306 309 308 306 305 305 304 303 304 305 301 300 303 309 309 309 308 307 308 310 302 301 309 315 303 299 310 312 315 318 320 320 323 323 324 325 326 326 326 327 328 328
313 313 313 311 311 309 302 298 305 307 303 305 311 313 313 314 315 311 299 293 291 305 302 309 307 307 313 310 309 309 295 300 313 315 315 319 314 317 307 306 308 310 311 310 304 302 309 308 307 306 305 304 302 301 304 305 302 299 307 309 310 308 307 307 307 307 307 312 314 314 309 301 303 310 316 318 318 319 320 322 323 326 326 326 327 328 328 329
313 312 311 311 309 309 303 304 304 303 306 309 312 312 312 314 314 309 298 289 291 312 303 305 310 315 312 310 311 304 305 310 304 309 315 316 316 312 309 306 306 306 309 307 297 305 308 306 306 305 304 303 301 303 305 306 303 303 308 309 308 308 308 308 307 306 307 308 303 310 312 303 301 309 317 318 315 316 317 320 322 324 327 327 328 329 329 330
312 312 312 311 309 308 309 306 306 304 310 312 310 309 312 313 308 299 294 287 304 304 317 306 318 311 310 310 307 307 307 310 304 309 314 315 315 312 304 307 308 308 310 308 302 305 309 308 308 308 305 302 305 306 306 306 302 306 309 310 310 309 309 309 306 306 306 304 301 306 310 301 301 309 312 315 315 315 317 320 323 325 326 327 328 329 330 330
312 312 311 310 307 306 305 305 302 306 307 308 308 312 311 307 302 293 290 284 305 298 308 309 308 305 308 304 304 306 304 307 310 311 312 309 311 313 312 314 308 307 306 309 307 308 310 314 314 309 306 307 306 307 308 307 307 309 308 307 306 307 305 306 307 304 303 299 301 308 310 307 298 306 310 310 313 317 319 321 324 326 327 327 329 329 330 331
311 310 310 309 303 305 304 300 305 310 310 310 312 312 306 301 294 289 285 295 305 304 311 306 305 310 305 302 300 305 305 306 307 309 305 309 307 309 309 306 310 305 303 304 305 307 309 309 308 310 313 311 309 306 309 309 308 307 304 303 302 301 302 301 305 304 297 294 306 310 310 310 299 302 311 316 319 321 320 319 322 324 326 326 328 329 330 332
309 308 309 307 307 308 301 300 307 310 309 311 311 307 300 290 293 286 289 307 295 301 304 304 308 307 305 306 304 303 302 305 307 306 303 303 302 302 303 300 302 296 296 298 298 306 304 305 308 310 315 310 307 305 304 307 307 304 302 301 296 293 296 291 296 293 293 294 304 310 310 305 304 307 313 316 318 320 322 323 323 324 326 327 328 329 331 332
308 307 307 308 309 306 307 308 310 310 311 311 309 305 294 289 283 290 291 299 297 307 303 311 307 307 307 304 303 305 306 301 307 306 307 305 303 303 306 305 306 302 293 299 299 300 301 307 308 308 309 313 310 301 298 299 303 302 300 297 293 290 290 287 290 295 296 302 306 307 311 304 306 310 316 316 319 321 322 324 325 325 326 327 329 329 330 331
307 307 305 308 309 309 311 313 312 313 311 311 305 298 292 285 286 301 294 295 297 305 305 304 306 308 308 302 304 306 301 306 306 305 306 303 303 300 303 305 306 303 301 300 297 298 294 296 303 306 302 310 309 307 303 301 301 302 303 301 297 296 294 289 291 289 293 294 301 308 302 297 300 302 317 318 320 322 323 324 324 326 327 329 331 330 330 330
306 307 308 308 309 311 313 313 313 314 311 306 300 294 286 285 292 292 294 297 300 302 301 305 303 303 302 306 307 308 307 302 307 305 304 303 300 302 301 302 306 306 304 296 300 300 299 299 305 310 309 310 308 310 310 307 301 302 304 304 298 297 302 293 297 296 298 297 297 300 300 304 303 314 318 319 319 320 322 322 323 324 327 329 329 329 329 330
305 305 307 305 307 310 312 313 315 314 309 302 295 289 286 291 289 296 296 303 303 301 302 304 303 299 300 301 307 306 310 305 305 305 303 304 305 302 306 305 304 306 302 297 301 296 299 297 307 309 311 309 308 311 310 310 296 300 302 297 300 305 304 301 303 303 303 299 295 307 305 308 312 314 316 317 317 317 319 320 322 324 327 328 327 328 329 330
303 305 302 306 307 312 313 313 313 313 308 300 293 287 293 294 297 297 302 300 300 299 297 292 297 298 298 298 301 305 306 307 306 303 299 306 303 306 305 306 308 307 307 304 300 305 296 297 306 307 305 309 311 311 311 311 309 301 298 301 306 307 307 301 293 297 294 291 296 301 298 299 302 298 313 314 314 316 317 319 322 324 326 326 326 328 330 331
303 303 305 306 309 313 315 315 313 310 305 298 291 296 298 293 299 298 301 300 301 301 296 294 295 300 298 299 299 303 306 303 303 304 300 304 300 309 306 305 309 308 308 309 302 302 304 295 302 308 308 309 312 310 307 309 310 304 301 308 301 294 295 299 301 290 290 290 292 297 300 301 301 304 309 310 313 314 316 319 320 322 326 326 326 328 330 331
304 303 299 306 312 310 311 317 312 307 301 294 292 292 297 298 301 300 301 301 300 298 294 296 294 298 297 295 299 304 305 300 304 303 300 303 299 307 307 308 306 309 309 309 304 304 305 296 298 308 307 309 309 307 298 301 306 308 308 304 306 301 298 295 298 298 296 291 294 293 298 295 309 305 310 311 313 315 316 317 318 322 326 327 327 329 329 329
300 296 295 306 309 311 310 313 307 304 299 292 294 294 300 297 300 302 302 301 298 297 296 296 299 295 298 298 299 297 302 304 304 303 303 304 303 309 307 310 307 308 310 309 306 307 301 303 293 301 309 308 301 304 301 301 299 301 301 300 301 301 304 302 302 298 294 293 292 293 291 299 305 311 312 313 314 316 317 317 318 320 323 326 327 328 329 329
301 295 296 307 309 309 308 304 302 298 296 298 299 298 300 298 301 302 303 304 302 304 299 298 297 295 297 296 295 299 297 300 304 303 304 304 305 300 309 310 310 308 310 308 306 305 300 300 296 299 300 302 303 307 307 306 304 302 301 300 300 297 294 292 292 302 300 295 290 292 292 303 308 315 316 315 317 317 318 319 319 319 321 322 327 328 328 329
296 290 294 306 307 307 300 293 295 302 298 295 294 298 297 305 300 300 301 302 302 300 305 301 301 299 298 297 298 298 298 296 299 303 305 303 307 306 309 313 311 312 307 303 303 307 306 307 300 297 300 300 306 309 311 310 308 306 304 301 303 300 298 294 286 293 299 299 302 300 296 297 310 314 315 318 318 319 319 320 319 320 321 322 326 328 329 329
294 292 302 305 306 304 297 291 294 295 296 299 302 300 301 299 297 299 298 300 299 302 300 300 300 299 300 299 299 298 299 296 298 297 303 306 307 309 311 312 313 311 311 306 308 308 321 301 297 299 302 306 308 310 310 310 308 305 305 305 303 300 300 298 296 299 296 299 295 296 295 299 313 315 320 328 319 320 321 321 320 321 321 321 326 327 328 328
295 294 297 304 307 304 295 287 288 292 295 299 299 298 301 299 298 297 298 299 298 298 299 299 301 302 299 303 301 298 300 293 299 300 299 303 304 312 311 311 312 310 309 306 304 309 302 302 299 294 294 295 301 304 304 308 307 303 301 303 304 304 303 302 301 304 297 298 298 294 291 295 311 312 326 321 319 319 319 321 321 319 319 321 322 327 328 329
295 297 297 300 305 302 293 294 291 291 293 294 294 293 295 296 298 298 297 296 299 298 298 298 301 302 301 302 301 301 301 298 295 300 300 302 302 307 310 311 311 309 312 315 327 311 305 302 299 293 290 289 290 291 292 296 300 303 305 304 304 303 302 299 295 297 290 298 301 295 296 301 307 311 312 313 322 319 319 320 322 321 320 320 319 328 329 329
292 285 293 295 299 299 298 300 296 293 291 292 291 292 293 292 295 297 299 299 301 299 299 299 300 301 299 300 298 299 299 302 298 296 298 299 301 304 306 310 311 310 321 331 327 311 304 305 302 299 296 295 297 300 310 307 302 300 302 304 304 304 304 302 298 295 290 296 299 298 301 305 305 308 310 311 319 315 318 322 320 319 324 323 329 329 329 330
295 288 289 287 294 295 294 295 294 297 290 294 288 292 291 292 295 296 301 295 301 300 300 299 299 297 297 297 296 297 300 299 301 299 299 298 301 303 306 305 306 313 331 329 329 312 305 301 303 302 301 302 307 306 308 307 302 303 303 303 304 303 303 301 297 295 299 296 287 300 305 302 303 306 313 311 312 318 317 316 323 331 332 330 330 327 336 330
288 292 294 296 289 286 289 290 294 292 294 294 291 294 291 291 292 290 296 299 300 301 296 297 299 298 296 296 297 296 297 294 298 295 298 300 300 302 302 305 305 313 325 316 318 312 308 300 304 304 303 304 305 305 307 307 305 304 304 303 303 304 303 300 300 301 302 296 294 299 308 305 306 308 310 316 318 319 319 314 316 325 330 334 331 326 329 329
295 294 294 297 289 292 292 292 294 293 292 293 292 292 290 291 290 294 294 295 296 296 299 292 294 296 296 297 296 294 296 291 292 297 297 297 299 299 298 302 306 310 316 313 311 311 308 303 305 305 304 304 304 305 305 304 305 305 304 304 304 304 303 303 302 302 302 301 301 302 307 311 310 309 310 314 320 321 321 323 320 319 324 333 332 331 331 329
291 291 290 296 294 292 293 293 293 292 289 293 288 291 291 291 290 294 295 294 291 294 299 294 294 296 296 296 296 293 295 296 294 291 297 297 296 299 297 299 300 304 305 308 311 311 305 305 311 305 302 302 305 306 305 305 304 303 304 305 305 304 304 303 303 303 304 302 303 303 302 304 311 311 311 316 320 325 319 319 322 321 324 336 333 334 336 333
297 299 297 291 288 291 292 292 291 290 288 290 289 290 291 291 291 294 293 297 294 292 296 294 296 295 296 295 294 294 297 296 296 296 298 298 294 299 297 299 303 299 304 304 308 311 307 304 308 306 300 300 304 304 305 305 304 303 303 304 304 303 301 302 301 303 301 301 304 301 300 300 306 313 312 312 317 318 319 320 319 323 324 323 336 337 340 340
299 303 301 295 287 293 290 292 291 289 286 291 291 291 291 291 293 294 290 296 297 297 297 295 295 294 294 294 292 295 297 298 299 301 301 302 302 303 304 304 304 302 301 302 307 305 303 302 300 301 298 300 305 305 304 304 302 299 300 304 305 306 306 304 304 306 305 304 300 299 298 303 307 313 309 308 310 315 317 318 319 322 327 322 322 334 338 340
Wind_Speed
22 22 21 22 22 22 23 22 21 20 20 20 21 21 22 22 22 22 22 22 23 22 21 21 20 21 19 21 20 20 19 9 12 7 10 18 11 15 17 9 13 16 12 7 7 10 10 10 12 10 9 7 7 9 10 10 6 2 3 3 3 6 5 1 5 5 7 3 4 7 9 8 11 9 10 11 14 14 15 12 14 18 14 17 18 20 19 18
22 21 21 21 22 22 21 21 21 20 20 21 21 22 22 23 22 22 22 22 23 23 22 20 21 20 21 20 19 19 15 8 9 13 19 22 17 21 16 10 12 16 12 6 9 11 11 11 11 11 9 8 7 8 8 7 8 5 3 2 6 4 6 7 5 5 10 10 7 7 9 7 8 7 8 8 13 15 13 16 17 18 20 19 20 21 20 20
22 22 22 21 22 21 20 21 21 21 21 21 22 22 22 23 22 23 22 23 23 23 23 22 21 20 20 19 16 16 11 6 8 14 21 20 22 20 19 14 14 15 13 8 10 11 12 11 12 12 10 9 8 10 11 9 9 7 7 2 7 9 6 9 4 10 4 5 5 8 9 10 10 7 7 12 12 13 12 14 17 20 22 21 22 21 20 19
22 23 22 22 20 20 21 21 21 21 21 21 21 21 22 22 22 23 23 23 23 23 22 22 21 20 20 19 15 13 7 7 7 8 2 9 12 22 17 15 14 16 11 9 7 10 11 11 12 14 10 10 8 11 9 8 9 8 7 7 7 9 3 12 9 12 13 8 5 7 8 10 9 8 8 13 10 9 13 18 20 22 23 24 23 23 19 19
22 22 22 23 21 21 22 22 22 21 21 21 21 21 22 22 22 23 23 23 23 23 23 22 21 20 19 16 14 7 5 5 3 2 2 2 11 13 15 14 15 12 12 7 7 10 11 13 11 11 10 6 9 8 10 12 12 6 10 12 11 9 1 5 15 6 8 2 3 5 7 7 6 9 8 13 11 9 14 19 20 21 22 24 25 22 20 20
24 23 23 23 22 22 23 23 23 22 22 22 21 21 22 23 23 22 23 22 23 22 22 21 20 20 20 17 11 5 1 3 1 1 4 4 11 15 15 15 15 10 7 7 7 9 11 12 11 8 6 6 7 8 8 11 9 7 8 12 15 6 4 4 10 12 10 8 8 11 6 10 8 7 11 12 11 11 20 22 22 21 21 21 22 23 21 21
25 24 24 22 23 23 24 24 24 23 23 23 22 21 22 22 23 22 22 22 22 21 21 21 19 19 19 19 5 4 4 10 11 4 6 5 7 11 13 12 9 6 7 7 9 8 10 12 11 9 7 7 10 11 15 14 11 11 3 11 14 8 9 9 12 18 15 10 5 6 12 8 6 7 9 9 15 19 24 23 21 21 19 19 20 20 23 21
24 24 23 23 24 24 25 24 25 25 24 24 24 23 22 23 23 23 23 23 21 21 20 19 19 17 15 9 2 3 6 9 18 16 13 10 6 5 7 5 10 7 7 10 9 12 10 12 11 8 8 7 5 12 11 14 13 12 9 13 10 12 12 8 9 9 14 11 8 10 5 7 10 4 3 16 19 23 22 22 21 20 20 18 18 19 19 18
23 22 23 24 25 25 25 26 26 25 25 25 25 24 23 22 22 22 23 23 22 21 20 18 17 13 9 3 2 7 9 16 17 14 13 10 7 7 7 6 8 11 7 9 10 10 9 9 11 9 7 11 13 15 10 10 6 9 11 10 11 13 9 5 6 9 13 7 7 9 6 10 5 9 6 13 20 21 22 21 22 20 19 18 18 18 17 17
23 23 24 25 25 26 26 26 26 26 26 27 26 26 25 24 22 21 22 23 23 21 18 17 14 9 5 2 4 4 10 8 7 10 14 12 11 10 9 7 11 8 7 8 8 11 12 8 10 8 11 12 10 9 10 12 8 7 12 9 5 5 8 10 12 13 11 11 11 8 9 5 8 6 7 14 19 22 20 21 19 19 19 17 17 16 15 18
24 25 25 25 25 26 26 26 26 27 27 27 28 27 26 25 22 21 22 22 22 21 18 15 10 5 3 4 3 9 7 10 3 9 14 13 13 9 10 9 11 9 9 8 10 11 11 13 10 5 7 6 5 11 12 10 11 13 14 15 14 7 11 7 7 7 11 11 14 8 8 11 5 2 7 14 19 20 21 19 18 17 16 16 17 15 13 13
24 24 25 25 26 26 27 27 27 27 28 28 28 28 27 26 24 23 21 21 21 20 15 10 6 4 4 3 8 13 5 6 3 0 5 11 13 13 13 11 11 10 10 9 10 10 11 12 11 8 5 4 10 9 12 11 10 12 12 13 11 13 5 8 13 9 11 11 15 8 5 7 4 3 13 17 18 20 20 19 17 17 15 15 16 13 13 11
24 25 26 26 26 27 27 27 27 28 28 29 29 28 28 28 25 23 22 21 17 15 12 10 6 4 3 6 13 19 16 15 17 15 10 8 12 11 11 11 13 12 11 10 9 10 11 11 11 10 10 9 6 5 4 6 11 13 12 9 9 8 12 4 9 9 9 11 13 13 5 6 8 7 15 17 18 19 18 16 15 14 14 13 12 13 13 10
27 27 26 27 26 27 27 27 28 28 29 29 29 28 28 28 28 25 21 19 20 16 11 6 4 4 4 9 5 7 12 13 18 16 16 12 9 10 8 6 5 10 11 11 10 7 9 9 9 10 6 8 6 4 12 9 7 8 8 7 7 3 4 6 6 8 6 13 14 15 7 6 8 7 14 15 18 19 17 16 15 13 15 13 11 14 13 11
25 25 25 26 28 27 28 27 27 28 29 29 29 30 30 31 29 24 18 14 12 11 6 5 5 3 4 10 9 22 28 16 15 16 12 12 10 6 10 8 10 9 7 7 6 7 7 7 9 9 7 5 8 9 10 7 6 7 7 6 2 3 2 7 11 8 7 10 14 13 6 7 5 6 15 13 16 18 17 15 15 14 13 14 11 14 14 12
25 26 27 27 28 28 27 28 28 28 28 29 31 32 33 30 26 22 18 14 11 3 5 4 6 6 6 11 8 8 6 7 18 21 13 12 12 12 7 10 8 9 9 7 6 6 7 7 8 6 7 6 8 7 7 6 6 7 9 3 4 7 5 6 7 4 9 9 11 12 5 6 6 4 14 12 15 18 16 16 14 15 16 14 12 13 13 11
24 26 26 28 28 28 29 28 29 28 30 30 31 33 31 27 22 16 12 8 6 6 6 3 5 5 3 3 10 10 8 12 9 8 12 13 13 12 10 9 7 9 9 9 8 7 8 9 3 6 5 6 7 6 5 6 7 8 4 7 8 8 9 7 7 8 9 13 5 9 4 8 8 9 13 13 13 16 16 16 16 14 13 13 12 13 14 11
24 25 27 28 32 32 29 30 29 29 30 32 30 28 26 28 19 6 3 4 4 6 7 7 5 4 13 10 5 12 11 8 10 9 13 11 12 9 7 7 6 10 10 10 9 10 7 7 4 5 4 7 6 8 9 9 9 8 6 6 9 9 7 7 8 9 11 13 8 9 5 6 10 11 15 15 12 14 15 16 16 15 14 14 12 13 14 11
26 26 27 30 31 30 28 30 31 31 28 32 29 27 23 11 2 3 4 4 4 2 1 6 6 7 4 5 13 8 6 7 6 12 11 13 12 10 7 5 6 10 9 8 5 11 5 6 4 6 11 9 11 10 10 11 10 13 12 9 8 8 8 7 8 7 13 10 9 11 9 6 9 5 10 14 13 11 13 14 15 14 15 15 13 13 14 11
29 28 29 30 30 30 29 30 32 32 27 21 17 14 5 2 1 1 2 6 7 8 12 6 12 9 12 16 13 11 12 7 8 10 4 10 10 11 10 8 10 10 9 9 6 13 4 9 10 12 10 10 12 14 14 13 14 14 13 13 9 10 10 5 5 7 13 5 7 9 9 6 9 8 7 13 13 11 12 15 13 14 15 15 14 14 15 14
27 29 29 29 29 31 28 31 33 32 29 14 10 5 6 10 8 6 10 11 14 16 17 20 17 16 16 12 14 14 9 1 3 8 11 10 8 11 10 9 10 10 9 8 9 6 10 10 13 12 11 11 11 13 15 12 11 14 14 13 9 8 10 8 7 13 13 9 6 9 11 8 8 12 13 12 12 13 12 14 14 14 16 15 15 15 16 15
27 28 27 28 31 31 32 31 34 32 28 6 2 3 7 6 2 6 7 13 8 11 13 19 17 20 15 19 20 16 11 12 12 9 4 13 9 10 8 11 10 10 9 9 8 8 12 14 11 12 10 11 12 10 11 13 14 13 12 10 11 10 10 5 11 15 12 12 6 10 10 9 8 10 5 8 12 13 13 13 14 13 15 14 16 15 15 14
28 26 25 27 29 33 32 33 32 35 9 4 7 10 10 10 8 5 7 10 20 12 19 22 19 21 20 15 16 12 14 14 10 10 8 10 6 12 8 12 10 9 9 12 11 9 10 12 13 10 11 12 13 13 10 14 15 12 12 10 10 9 8 3 9 14 15 11 10 7 10 7 7 10 10 9 5 5 11 14 13 14 15 16 17 15 15 17
26 25 24 25 27 30 34 32 33 13 7 13 13 13 9 10 9 10 9 6 13 16 16 18 19 20 22 18 10 16 14 11 11 13 10 11 10 11 9 11 11 9 10 13 15 12 11 4 13 13 12 14 14 14 14 11 11 15 16 11 10 12 12 10 4 5 2 9 11 7 7 3 7 9 8 9 10 8 10 12 13 13 14 14 15 15 15 19
24 25 24 24 25 28 33 34 8 8 15 15 6 12 12 12 8 9 8 6 7 11 11 16 12 13 19 11 7 12 14 11 14 9 7 13 12 8 11 6 6 11 12 12 14 15 14 12 11 18 16 15 14 13 16 14 11 11 16 16 14 13 13 11 8 10 6 4 10 10 3 5 6 12 13 12 14 12 6 10 11 12 13 14 16 16 15 16
24 25 24 23 25 25 32 12 6 14 17 9 8 14 13 13 10 9 5 3 9 7 9 8 10 10 9 12 13 11 7 14 16 13 10 12 11 9 6 8 5 10 15 14 12 8 10 11 14 13 18 16 16 14 13 15 11 9 10 16 18 19 16 14 13 7 5 9 8 10 8 3 5 8 10 12 14 15 10 12 13 12 13 14 14 14 15 15
24 25 24 24 22 22 13 6 10 16 12 7 13 15 14 13 8 12 3 4 6 7 7 5 9 1 8 14 16 12 10 15 11 12 15 10 14 9 8 9 6 6 6 6 4 9 8 15 16 16 13 17 14 14 13 14 12 12 7 13 19 18 18 18 18 10 3 7 10 14 8 5 3 9 8 14 15 16 16 13 14 13 14 15 13 15 15 16
25 24 25 25 23 16 8 9 12 10 12 13 12 14 15 11 10 7 2 5 4 2 6 4 5 2 3 14 17 17 4 10 11 17 19 13 9 12 13 10 11 11 10 7 13 4 9 11 16 17 16 12 14 11 10 14 12 9 11 12 12 16 17 16 15 11 4 6 5 11 12 5 4 4 6 10 14 14 16 12 10 13 16 15 14 15 17 17
24 24 24 26 24 24 13 5 8 12 9 9 15 16 10 10 9 2 2 4 5 4 3 7 3 3 2 16 16 15 10 6 9 12 17 15 15 6 12 15 10 10 13 13 10 6 9 12 11 18 13 12 8 12 13 13 13 11 10 11 13 10 11 15 12 11 9 7 6 11 13 6 4 5 7 8 11 14 14 14 12 12 15 16 16 15 17 16
25 24 24 24 21 9 6 9 12 21 14 13 14 12 13 9 3 2 2 7 5 3 3 2 2 5 6 15 12 15 15 8 9 8 16 14 15 15 6 11 12 10 10 14 15 11 9 11 15 10 14 10 7 11 15 15 14 7 11 12 12 13 11 7 9 6 5 8 6 10 14 11 5 9 11 10 9 13 14 12 12 11 12 14 15 16 14 15
24 25 22 20 10 8 10 10 14 9 5 11 13 14 9 4 3 3 8 3 5 3 2 2 5 7 9 14 11 16 15 10 12 4 11 13 13 15 8 9 9 8 9 9 11 15 16 15 9 7 9 9 10 8 14 13 11 11 7 10 9 9 6 4 2 5 9 5 4 15 16 17 10 5 8 8 8 14 16 15 16 15 15 15 14 15 15 16
25 26 27 15 15 9 7 9 10 9 12 14 14 8 5 3 4 8 6 4 7 5 11 7 10 9 14 13 12 15 15 15 9 9 8 11 10 14 16 11 11 11 11 10 10 8 15 15 11 10 7 12 9 12 8 15 12 11 7 6 10 5 4 6 4 6 5 8 4 10 12 11 13 8 13 13 12 12 17 17 18 19 19 17 16 16 15 14
26 26 31 21 13 8 15 18 14 12 11 14 8 5 3 3 10 13 6 4 3 1 2 6 8 10 10 12 12 12 14 13 11 10 10 13 12 13 16 15 10 12 8 10 9 8 9 11 15 13 10 11 13 9 5 8 11 12 11 7 6 6 6 7 4 2 3 4 8 9 14 10 4 8 14 17 15 14 16 18 19 21 19 19 17 16 14 14
27 28 15 14 11 13 13 11 12 10 10 9 6 4 4 7 9 9 15 10 13 15 13 8 6 6 12 11 11 9 11 11 10 12 13 10 15 11 14 19 15 12 7 6 11 9 7 10 15 13 10 9 15 12 5 3 9 14 8 10 6 5 4 6 4 6 6 5 7 14 10 4 10 4 19 18 19 15 14 15 16 22 22 21 20 19 19 16
30 24 13 15 11 12 14 14 14 12 9 6 5 7 9 16 2 2 5 8 8 16 20 19 14 13 10 13 12 14 10 8 15 12 14 13 14 12 13 16 21 12 10 9 7 5 16 9 5 16 8 8 14 12 7 6 5 6 6 4 8 10 4 6 4 5 4 3 6 5 5 7 7 8 16 16 15 13 9 12 13 15 16 18 17 18 16 14
21 11 15 12 10 12 11 10 12 11 8 7 6 8 17 5 5 3 5 6 8 8 12 18 15 12 11 8 13 15 17 9 16 14 11 16 12 14 13 11 17 21 10 12 4 8 7 11 8 12 20 15 7 13 13 10 9 6 7 13 13 6 7 1 5 4 4 4 6 1 4 3 1 4 13 15 16 16 13 10 11 13 17 19 16 16 15 15
11 14 11 15 15 16 11 12 7 10 8 8 9 14 7 7 12 13 6 11 13 16 13 10 8 5 7 8 6 16 12 16 12 14 10 10 13 15 15 12 16 19 21 8 8 7 3 5 10 10 17 19 14 10 15 17 12 3 14 14 5 4 1 3 4 3 7 5 3 5 5 3 8 6 8 16 18 16 12 14 13 13 16 19 17 15 15 16
12 10 15 20 21 16 10 10 10 8 8 10 14 18 5 12 6 14 14 19 17 14 11 10 9 13 10 9 9 10 15 12 12 12 11 12 8 13 14 12 17 18 23 19 7 6 10 7 7 16 13 15 17 12 11 13 17 13 3 5 9 6 12 3 1 6 6 6 3 4 4 5 7 4 7 12 16 14 14 13 15 15 18 20 18 19 18 18
10 10 10 16 10 10 14 11 9 9 10 10 12 11 9 15 14 17 15 17 17 16 13 9 7 8 13 12 11 12 10 14 11 12 10 9 11 16 18 10 12 19 20 23 15 6 6 8 6 7 14 12 14 11 12 9 7 10 8 9 4 4 5 8 6 2 2 3 5 7 5 4 3 4 14 13 11 14 16 15 16 17 19 18 18 18 17 16
9 8 8 11 10 15 22 6 8 11 10 15 10 11 7 12 11 13 16 16 13 9 9 12 11 12 15 13 14 12 13 13 14 12 13 7 13 13 20 18 10 17 19 24 16 13 7 4 5 5 10 12 12 10 10 8 10 9 10 11 7 4 2 8 5 8 4 2 4 2 5 6 7 4 12 11 16 16 17 17 15 15 18 20 18 18 17 18
9 7 11 13 10 20 20 12 10 12 12 10 15 14 13 12 11 13 16 16 15 13 16 16 13 12 12 13 17 13 11 15 10 13 10 10 13 8 15 14 15 13 17 19 21 13 8 6 7 6 7 10 9 10 15 14 12 13 13 16 12 9 7 7 7 5 10 7 3 5 7 1 5 7 5 11 13 16 15 15 15 15 17 16 21 23 19 18
9 9 11 20 21 18 13 10 6 8 9 13 14 11 11 12 16 18 18 18 19 14 11 13 17 16 16 15 14 16 11 13 15 11 11 11 12 12 7 23 18 17 11 14 15 14 8 3 5 9 10 6 7 13 19 19 15 12 14 14 14 7 4 4 5 6 9 10 9 4 1 7 6 4 6 6 14 12 10 13 14 14 15 11 16 20 21 22
8 12 17 23 24 16 10 9 9 10 12 12 15 18 18 18 16 14 17 14 15 12 13 14 15 15 15 13 16 16 15 13 15 13 11 13 14 14 9 18 20 21 19 8 15 14 12 6 6 9 7 10 12 8 19 20 18 14 13 14 11 13 12 9 5 3 2 1 5 3 7 3 2 6 4 5 11 15 14 16 14 13 12 12 14 21 21 18
9 12 15 14 12 11 8 8 7 9 10 13 17 19 14 15 15 14 14 16 13 11 13 13 16 15 16 15 14 16 12 10 13 13 12 10 8 11 19 16 16 14 17 6 9 14 9 8 5 4 6 7 9 6 6 18 15 11 7 12 14 11 11 11 6 3 8 8 7 6 8 4 4 11 2 4 4 9 7 9 10 12 9 13 10 16 15 16
10 10 12 12 11 8 10 7 10 10 11 14 15 16 15 14 11 17 18 19 17 16 15 14 16 14 14 14 16 16 17 15 14 15 13 15 12 12 15 20 19 14 15 13 12 13 13 8 11 8 11 12 10 11 7 9 15 8 8 11 16 17 14 10 12 5 7 7 11 4 3 4 5 13 16 8 1 3 13 16 14 13 12 16 7 16 18 18
6 9 8 9 9 8 9 8 12 11 11 13 15 15 17 17 15 13 14 14 16 21 19 16 17 18 18 18 16 16 18 14 15 12 10 11 10 9 11 10 17 15 15 22 19 12 8 8 12 14 10 9 9 4 3 6 10 13 14 13 10 15 15 12 6 6 8 4 9 7 4 2 8 18 16 7 4 4 3 2 5 9 10 9 7 17 17 14
4 6 7 10 12 6 7 10 9 9 9 13 8 10 13 15 14 15 12 9 11 15 9 5 10 14 10 13 13 14 17 21 17 17 16 14 14 13 22 17 17 19 22 14 21 10 6 9 15 17 17 11 5 8 12 7 12 13 14 17 16 11 12 15 11 14 5 3 5 3 7 11 10 7 4 6 8 6 5 6 6 4 1 5 13 16 19 17
4 5 8 7 6 11 14 12 15 17 17 15 10 10 14 15 14 12 14 12 13 13 10 10 11 10 14 12 15 9 14 17 15 8 19 15 16 21 21 18 12 15 19 8 12 9 5 9 14 16 19 19 17 15 11 9 8 10 12 13 18 19 14 12 11 12 6 6 11 6 3 6 9 10 6 4 3 4 5 11 11 9 9 6 6 10 16 16
7 7 9 9 5 8 11 17 20 17 16 14 7 13 15 14 14 13 8 14 15 12 10 11 12 14 15 14 11 8 12 12 11 11 7 17 17 12 7 18 15 9 17 12 11 4 3 2 7 15 12 16 18 20 19 17 10 11 15 14 15 19 21 19 12 8 10 7 7 8 7 7 6 7 6 5 3 3 3 2 3 6 11 12 11 9 11 13
6 6 4 7 7 11 12 12 13 13 12 13 9 9 13 13 16 14 12 9 12 13 8 8 12 14 13 11 7 8 11 12 13 16 18 18 21 7 15 8 11 20 21 10 6 3 6 2 4 6 11 14 15 16 17 16 16 10 6 13 15 16 18 18 17 13 8 10 11 8 8 10 6 5 7 3 4 4 1 0 1 3 8 12 14 15 11 12
6 5 5 7 10 6 8 10 9 9 10 10 8 11 13 17 17 15 15 12 12 14 9 9 12 14 9 10 11 12 13 15 17 18 18 17 15 13 8 11 13 19 21 16 7 3 12 2 2 2 3 5 14 19 17 18 16 15 15 12 12 13 14 16 14 11 11 6 5 11 10 8 6 5 7 5 5 3 5 5 6 2 2 8 11 12 14 12
5 4 2 2 6 7 9 10 11 9 9 5 6 13 10 17 19 16 13 8 11 13 8 12 15 13 13 12 13 14 16 18 20 19 17 17 17 16 16 20 15 14 12 15 14 4 6 5 4 1 1 2 2 8 19 18 15 15 18 16 11 5 4 6 13 15 13 12 7 5 7 6 8 6 5 7 5 4 4 7 5 5 4 4 8 12 16 16
Wind_Direction
354 353 351 349 348 347 346 344 342 341 337 334 332 331 329 327 327 326 326 324 322 322 321 320 321 322 321 322 324 327 325 315 308 301 251 246 235 234 249 243 169 183 172 155 205 173 190 207 219 217 223 224 231 235 240 247 227 100 128 119 221 221 248 324 299 164 196 218 155 171 140 113 106 136 119 136 137 132 152 137 127 130 129 133 139 139 137 131
354 352 350 348 347 345 343 340 339 336 334 332 331 327 326 326 325 325 323 322 321 318 318 318 319 320 321 323 325 326 327 289 279 269 245 253 220 228 225 184 169 172 154 183 202 200 191 202 214 210 218 226 222 240 213 226 232 188 136 145 235 205 209 170 236 205 167 242 193 138 126 147 126 132 155 138 140 144 148 134 143 121 125 128 129 134 139 142
353 350 348 347 346 343 339 338 335 333 332 330 327 324 324 324 323 320 320 318 316 317 316 318 318 320 322 323 322 324 326 301 274 254 260 257 230 223 218 194 170 164 167 179 208 210 208 202 203 203 212 237 214 234 217 232 224 193 134 190 250 228 192 181 208 262 169 232 148 134 157 125 145 139 186 146 157 151 141 127 121 133 139 138 134 141 144 145
351 349 347 346 342 339 337 334 333 331 329 327 324 323 323 321 317 316 316 316 316 315 315 315 317 320 321 320 324 320 291 269 272 254 279 323 217 210 197 180 174 174 191 209 206 219 227 230 207 202 214 216 239 239 243 220 224 161 176 182 224 241 208 178 184 247 170 201 173 164 123 119 178 151 185 145 149 149 121 132 141 143 145 140 142 144 148 149
349 348 345 343 339 336 334 333 330 328 326 324 322 321 320 317 314 315 314 313 313 313 312 313 316 318 320 316 318 317 299 322 279 55 359 48 104 142 156 173 171 183 197 213 243 250 242 230 233 219 222 232 229 249 242 244 236 202 199 185 200 238 47 198 189 115 54 324 216 99 149 148 127 163 162 162 156 162 139 138 141 144 147 146 147 149 150 152
348 346 344 341 337 334 332 331 328 325 323 322 322 320 316 314 314 312 311 310 309 309 310 313 315 318 320 315 307 284 289 291 26 37 138 192 142 152 164 168 175 182 198 229 236 241 242 241 231 236 222 220 253 250 251 248 232 242 207 178 201 215 179 134 182 138 146 213 165 182 149 120 165 203 172 178 161 144 134 141 143 148 150 151 148 151 153 157
347 345 342 338 336 333 332 328 327 324 321 321 319 316 314 314 310 309 308 307 307 306 308 311 314 320 322 310 261 211 228 253 292 239 155 227 193 170 163 154 150 176 192 214 229 237 235 234 220 228 242 237 229 246 260 273 281 281 214 181 198 171 227 201 182 159 167 185 177 100 126 170 152 236 141 201 145 126 131 136 142 144 148 149 153 158 161 160
346 344 339 335 335 332 330 329 326 325 321 318 319 314 311 309 311 308 306 305 304 304 305 310 316 322 329 329 240 233 200 253 245 245 206 177 197 152 126 135 158 167 192 211 211 223 240 236 217 209 236 236 226 230 244 253 252 247 245 194 200 178 207 215 154 174 145 166 126 121 182 156 178 147 142 97 113 122 132 135 139 146 151 155 158 161 160 156
343 339 337 335 333 331 330 329 328 323 320 319 315 314 310 309 306 306 305 304 303 303 305 308 314 320 322 296 273 296 255 234 249 242 178 160 177 148 169 157 187 166 196 211 222 234 228 241 234 210 216 226 252 269 267 267 249 258 257 210 207 196 182 177 177 152 157 144 137 138 194 143 178 132 137 121 118 128 132 136 142 150 153 159 165 161 162 164
340 337 336 334 332 330 330 327 324 323 321 318 315 312 311 307 304 301 303 303 300 301 304 306 310 313 303 251 260 257 254 238 234 164 153 164 169 160 196 192 169 186 185 208 218 230 233 236 231 208 241 270 273 258 266 259 267 272 275 276 275 181 165 175 214 162 171 138 136 181 137 162 136 134 118 125 125 125 130 138 148 150 157 163 165 165 164 170
340 338 336 333 331 329 327 325 324 322 319 317 314 311 308 307 303 301 300 299 298 298 301 302 298 284 240 223 239 249 268 290 180 165 170 167 156 164 198 223 176 183 201 205 218 223 238 250 252 255 221 239 248 257 262 267 293 288 293 304 294 210 175 194 207 169 140 141 149 176 136 120 157 115 150 133 128 133 136 144 151 155 159 162 173 164 165 175
340 337 335 332 331 327 325 325 324 321 319 316 313 309 307 305 304 303 301 298 294 290 293 290 286 249 258 261 230 226 268 319 358 113 203 182 169 185 197 214 177 196 192 216 219 221 230 243 251 257 253 146 243 284 282 290 282 286 287 284 293 294 222 192 185 180 143 148 161 130 119 133 137 213 146 134 136 134 143 149 156 158 161 165 169 162 166 180
338 337 336 333 329 326 324 324 322 322 319 315 311 308 306 304 303 302 299 296 286 284 284 278 252 234 262 260 233 243 265 278 284 283 265 214 194 193 195 210 188 193 198 216 227 220 223 232 244 257 251 265 278 231 328 258 255 259 259 257 266 268 250 206 190 135 147 146 156 124 159 197 179 195 148 136 139 143 144 151 155 161 161 163 168 161 168 179
338 337 333 331 329 326 323 323 323 321 317 313 311 308 304 302 301 299 296 284 281 282 278 246 217 236 221 245 281 256 240 236 255 261 263 268 220 193 201 226 241 199 204 212 230 239 226 223 243 250 265 252 255 295 278 287 278 261 269 258 231 310 296 219 217 148 156 157 145 133 144 198 199 139 145 141 143 143 147 155 156 160 163 166 161 163 171 183
336 333 330 328 328 326 325 323 322 319 316 314 312 308 304 301 298 297 292 284 274 258 252 205 225 208 208 265 250 254 246 247 256 248 238 242 245 232 194 195 221 246 242 228 232 235 259 248 220 234 238 246 270 283 284 287 296 293 286 280 280 267 259 290 184 185 161 172 148 137 139 180 200 159 147 154 145 144 151 157 159 162 165 167 159 164 170 187
334 331 328 327 326 326 324 324 322 319 317 315 315 308 303 297 292 290 280 270 266 216 188 201 206 217 306 289 262 286 242 187 230 234 238 241 229 234 215 199 205 218 227 240 242 256 248 258 241 208 232 238 245 231 262 298 283 269 254 231 254 189 236 258 183 190 153 164 154 156 145 149 164 195 153 160 152 149 155 158 162 165 163 169 157 165 170 180
331 329 327 325 325 325 325 323 322 320 320 318 315 308 303 290 282 277 266 247 227 198 196 209 145 192 267 223 349 321 261 207 218 202 222 229 239 223 215 199 207 221 214 229 223 228 238 239 215 265 229 220 201 222 236 244 261 266 234 248 248 210 200 240 163 189 139 150 169 165 155 169 160 173 166 164 162 154 158 160 163 168 162 166 158 166 173 177
330 328 327 325 328 327 325 323 321 321 321 319 316 305 298 292 290 293 216 192 210 193 221 258 284 236 260 246 275 241 237 244 185 209 199 206 222 233 231 203 201 222 215 212 223 228 204 238 202 226 228 223 213 198 201 218 223 242 250 250 245 256 229 202 166 175 146 151 161 156 181 163 156 173 165 169 167 160 164 161 165 169 163 167 162 171 173 179
331 330 329 329 326 325 324 322 321 322 323 319 310 301 279 278 314 182 158 154 159 131 222 189 182 160 235 149 215 256 260 233 220 190 200 196 185 223 230 239 229 206 212 205 186 214 181 237 214 221 221 207 211 215 210 222 228 233 243 237 227 236 235 229 160 161 166 159 164 160 184 171 167 162 171 163 168 170 168 164 165 170 164 170 166 169 174 180
333 332 332 329 325 324 326 323 321 320 327 328 337 335 332 319 343 98 221 192 235 250 283 284 200 240 280 290 290 276 270 245 222 181 232 177 165 192 222 207 227 229 212 196 194 196 188 209 216 216 217 213 206 213 226 221 230 249 247 249 235 215 243 225 175 157 162 166 177 163 177 174 165 159 172 169 166 175 168 171 170 167 165 173 169 171 175 177
333 333 331 329 326 324 325 325 320 318 323 316 303 312 358 338 348 336 324 275 251 246 246 259 248 238 248 279 277 284 313 282 298 165 219 151 187 163 200 213 219 220 209 194 210 168 209 224 223 223 218 225 228 209 219 237 235 239 250 259 259 246 239 202 197 157 166 168 193 175 172 183 177 173 177 168 167 180 177 172 174 170 165 172 175 172 177 180
333 333 330 329 327 325 325 326 320 316 320 281 265 293 287 321 43 305 328 300 267 250 263 254 253 257 245 247 259 271 280 269 279 248 184 152 180 182 160 209 211 221 176 214 210 211 201 221 222 218 226 224 240 232 212 226 242 246 249 255 266 260 275 231 193 158 168 169 188 179 180 181 180 148 141 166 182 179 181 175 175 174 166 174 176 175 173 175
331 330 330 328 328 325 325 322 319 315 311 316 306 303 294 318 351 339 325 286 282 243 236 239 244 248 247 237 247 249 248 257 250 228 202 165 178 202 165 192 214 218 194 196 215 217 221 213 219 217 218 225 225 239 227 210 228 242 245 249 253 266 254 267 192 171 174 169 167 173 186 187 168 160 158 166 192 192 183 177 177 173 175 173 177 176 170 176
328 327 327 328 328 326 323 321 313 302 336 315 290 269 278 343 337 357 325 286 295 280 214 228 217 227 232 214 214 225 230 239 236 241 194 172 207 172 229 190 205 215 218 199 213 226 231 193 196 224 225 218 226 219 232 228 219 224 242 245 255 249 253 249 262 188 157 169 158 151 168 188 154 170 164 177 194 221 194 184 180 177 178 175 174 177 169 174
325 325 326 328 331 329 324 316 324 358 323 321 306 354 354 341 341 359 326 286 234 265 181 236 210 222 225 204 193 199 216 240 238 235 211 180 193 175 208 219 211 211 219 217 209 223 234 232 196 203 219 223 221 223 216 223 232 227 224 237 247 259 259 262 247 180 163 203 180 147 146 226 191 175 180 180 183 198 197 187 187 182 176 170 177 180 176 174
324 323 325 329 331 338 320 314 35 348 324 283 356 346 345 330 340 341 313 286 284 279 153 225 150 246 162 196 185 206 196 231 219 226 234 185 193 210 164 225 202 218 204 222 224 221 220 221 242 209 205 216 220 225 218 211 234 227 219 217 236 249 260 266 257 211 173 190 207 169 159 252 189 193 182 180 179 188 197 207 193 180 178 177 178 179 180 176
323 324 324 328 332 345 353 325 336 325 329 324 343 333 331 322 331 324 317 232 278 212 195 127 166 322 174 175 172 160 201 227 187 213 229 206 195 182 231 196 196 242 219 201 225 227 195 207 223 240 216 209 215 221 218 213 217 233 224 210 217 231 248 254 266 257 237 193 174 181 163 149 221 212 198 169 186 184 196 205 191 179 181 183 181 179 180 181
323 323 323 325 328 340 266 282 315 308 266 270 307 317 310 306 319 293 162 341 275 181 140 169 242 109 223 151 171 184 212 103 174 200 211 206 212 170 214 210 206 206 220 210 227 175 222 207 211 227 234 215 212 209 212 219 221 229 226 245 227 218 226 243 254 259 227 175 213 184 158 176 190 254 178 154 175 187 196 206 196 184 180 183 183 176 181 182
320 321 321 321 325 312 284 222 280 274 259 306 308 298 306 313 305 332 284 258 298 310 4 166 335 179 186 155 179 200 229 192 192 173 192 205 204 206 192 218 230 218 213 227 241 213 209 240 206 219 229 230 210 197 214 209 228 228 234 232 254 251 233 228 232 245 246 224 219 190 167 171 213 199 198 178 180 193 196 201 204 192 185 180 184 181 179 182
318 318 318 321 324 314 319 296 251 256 276 287 292 312 312 305 270 213 195 259 221 253 183 71 229 186 180 161 187 192 211 225 248 151 179 195 191 214 218 188 224 244 236 216 234 241 251 201 233 218 220 231 215 200 201 216 224 227 218 241 242 250 251 237 228 209 262 229 204 193 172 167 217 202 187 192 196 178 192 198 202 192 185 182 183 186 178 180
316 315 313 318 303 304 312 290 268 256 299 322 321 317 302 266 228 185 228 238 312 253 124 140 183 160 182 179 186 192 208 217 223 202 177 189 187 193 201 188 202 238 246 257 228 224 238 255 238 227 225 208 233 224 195 212 224 216 214 214 246 264 288 287 270 203 222 242 220 190 184 175 204 238 196 196 173 174 180 189 186 193 187 187 186 189 185 180
314 313 308 309 272 272 247 251 275 339 331 316 319 310 307 249 222 215 217 132 247 193 194 193 205 183 190 196 202 178 193 208 223 208 194 185 191 187 197 209 170 197 225 218 237 225 227 232 243 259 213 230 209 232 203 193 216 227 221 215 205 224 223 263 233 241 227 220 206 193 200 200 207 188 188 193 193 190 182 188 191 190 191 189 190 188 184 183
314 312 307 292 271 237 230 238 272 285 302 296 296 297 256 227 237 208 258 248 232 320 106 204 191 198 192 203 214 191 191 207 199 231 206 183 207 200 196 211 180 195 197 203 236 225 241 229 231 236 254 210 228 209 183 200 199 216 221 203 188 195 203 237 248 245 241 230 212 198 180 220 161 220 183 192 197 193 190 189 188 192 193 191 188 188 184 183
314 313 307 277 261 251 254 242 247 250 269 286 273 269 244 234 248 139 216 227 267 304 316 294 330 259 203 206 206 197 190 212 194 215 220 183 198 200 197 203 213 187 222 183 212 212 236 216 219 216 219 191 212 221 177 207 182 212 212 212 193 179 193 212 213 203 219 220 232 205 209 200 184 241 178 185 191 199 193 190 184 187 188 185 184 184 185 188
314 306 279 282 273 246 233 230 239 234 245 266 251 230 215 230 320 220 222 208 240 282 286 292 298 288 245 215 202 205 213 189 208 210 219 205 191 208 190 194 203 221 180 230 197 211 227 246 207 210 239 196 208 197 210 228 264 202 212 210 218 220 174 215 184 222 242 222 232 228 220 158 194 199 181 183 185 194 182 186 185 183 182 178 178 182 186 189
311 308 308 275 271 263 243 232 216 207 218 231 233 222 228 194 208 192 284 306 260 247 286 285 269 274 270 246 192 215 193 245 182 217 218 216 199 198 204 189 196 201 202 203 167 216 203 229 214 194 213 235 208 170 199 207 221 189 199 220 222 195 217 197 276 260 315 270 246 232 238 246 113 186 179 181 186 199 191 190 174 171 171 173 182 185 185 186
316 314 314 296 284 260 255 253 232 184 206 226 226 240 250 263 263 298 296 295 310 330 319 305 279 260 243 252 229 195 194 202 206 194 220 201 215 207 197 206 184 195 218 195 214 236 189 217 207 222 200 218 226 189 198 201 219 156 204 214 211 225 254 168 191 215 239 218 258 230 233 266 179 256 198 178 186 194 194 186 170 165 162 172 178 182 183 184
311 298 284 274 264 276 249 232 236 196 203 220 236 245 298 269 245 258 289 292 295 321 329 301 298 296 266 261 255 210 184 203 191 204 220 192 242 182 209 206 186 197 201 216 236 196 225 277 213 214 215 199 213 218 216 218 203 226 226 127 205 171 232 215 212 211 223 239 252 236 241 234 185 238 183 182 181 188 189 184 179 167 167 174 177 182 182 181
286 290 299 273 289 330 315 182 223 198 203 233 237 263 245 258 281 290 295 299 299 299 289 277 297 289 308 302 306 279 210 203 194 210 210 192 228 173 206 196 199 198 192 203 220 235 193 232 258 239 212 179 195 199 218 198 198 225 257 272 233 227 191 219 205 252 146 250 221 249 261 249 229 199 189 179 178 176 186 187 183 173 172 172 175 182 182 182
324 324 279 276 325 351 338 240 208 208 215 232 244 246 286 278 265 253 256 267 282 276 264 286 273 285 289 290 276 278 288 247 195 214 215 161 221 169 199 191 212 194 195 192 214 208 247 200 250 252 224 181 203 187 199 171 180 189 218 243 235 249 145 192 173 210 173 195 194 189 237 243 256 200 178 196 183 189 183 186 185 175 174 175 176 183 183 186
325 293 278 280 343 354 334 326 235 217 228 248 251 265 268 268 271 267 271 263 270 262 269 274 280 275 286 302 300 311 309 297 249 209 213 203 197 196 192 197 194 214 189 192 201 196 222 203 238 277 264 219 205 175 182 183 185 190 197 222 226 209 239 200 239 188 209 214 205 184 236 266 251 223 208 192 208 194 188 177 183 175 176 182 182 183 184 188
308 291 274 302 321 334 328 312 274 249 250 240 244 242 253 253 258 264 270 277 276 281 286 283 273 265 266 264 274 286 276 282 289 265 201 234 193 225 174 195 185 203 202 197 197 190 206 179 215 239 250 248 224 182 183 183 191 193 187 218 225 223 215 216 208 236 195 220 227 198 198 256 247 239 229 201 193 196 181 169 176 180 183 176 180 186 186 189
294 280 288 293 297 305 296 280 273 257 245 248 259 258 261 268 276 284 287 270 263 260 270 266 265 276 265 268 272 270 274 280 281 285 299 222 230 210 208 199 189 188 211 206 191 190 184 217 194 245 293 273 268 223 182 183 186 199 195 200 214 217 219 225 220 188 186 183 213 195 228 218 268 288 287 200 189 183 176 170 167 180 189 195 175 181 185 190
303 299 298 286 279 275 276 261 267 253 249 254 249 259 264 279 283 273 257 259 260 258 255 263 271 257 278 275 273 274 281 284 273 279 285 314 290 236 200 214 197 202 188 187 214 157 202 195 185 154 240 277 283 309 213 181 186 197 193 188 211 227 223 233 257 189 220 212 213 160 230 230 231 280 327 4 135 143 161 163 165 183 184 204 171 180 177 185
298 278 258 282 298 261 247 238 254 267 270 263 265 267 260 253 254 266 267 270 274 266 265 259 266 281 275 286 278 277 263 255 291 279 286 298 282 303 257 204 217 227 194 182 205 155 202 165 182 203 194 209 220 214 207 193 192 181 197 193 193 217 219 213 230 214 211 225 220 191 225 238 186 230 255 247 359 173 173 178 182 163 190 201 157 173 180 187
303 308 307 307 300 316 291 271 248 255 263 271 273 269 270 266 266 278 313 312 299 269 255 280 268 275 279 272 276 277 277 260 249 275 286 285 298 290 303 278 225 222 226 189 197 164 194 174 186 199 199 207 229 229 232 174 179 196 187 199 208 204 220 218 215 220 206 221 209 224 188 219 202 196 231 194 172 150 142 140 191 188 181 194 147 172 177 173
286 272 307 319 319 306 309 328 336 336 309 332 315 345 314 319 314 304 313 311 307 317 331 339 340 293 298 341 324 317 311 291 253 257 258 267 280 286 291 294 295 282 247 214 194 191 180 197 190 193 205 211 212 236 239 226 184 186 181 191 209 230 210 217 210 229 193 136 274 266 216 219 244 276 246 222 186 182 192 169 139 145 105 195 161 170 177 176
280 271 295 311 299 302 316 323 333 320 316 308 294 288 288 301 309 300 305 276 298 313 333 336 326 352 3 343 330 316 353 345 324 320 348 332 342 329 310 294 278 286 266 202 167 186 137 200 188 186 205 214 219 243 255 248 217 187 192 190 196 212 238 227 223 229 199 197 221 236 194 196 234 234 211 195 232 211 202 194 174 156 147 140 133 160 174 175
266 291 288 301 308 304 305 305 309 304 302 303 301 300 286 280 284 291 285 305 300 295 304 300 313 350 344 338 339 323 359 357 336 328 353 337 327 327 312 319 292 294 260 199 176 147 137 159 202 190 194 206 218 230 240 252 255 211 199 204 197 196 213 235 245 233 217 219 224 211 205 221 226 247 208 204 198 176 173 216 178 136 139 153 147 156 168 174
283 298 301 323 296 294 296 299 300 310 306 312 306 278 280 281 286 292 288 282 291 297 327 313 313 319 334 347 3 345 338 331 321 310 320 325 314 329 317 265 319 325 327 269 176 158 122 201 195 203 200 204 211 226 238 245 248 257 228 210 209 199 199 211 233 246 243 234 227 214 214 226 241 218 262 166 172 114 66 85 297 198 131 149 150 159 161 165
257 294 324 304 308 300 307 302 302 306 301 302 300 319 324 318 296 292 286 286 296 310 323 297 304 320 327 331 327 313 320 325 314 308 306 300 280 295 297 296 318 308 308 310 250 139 171 147 161 190 208 231 205 205 224 244 254 257 256 254 231 213 204 195 211 221 234 226 213 222 221 236 258 241 232 241 139 136 155 182 172 238 232 141 158 155 147 151
275 238 215 273 285 296 304 294 285 289 280 327 330 316 312 312 304 331 325 340 335 331 308 322 347 329 314 324 323 327 328 316 307 306 303 288 277 275 256 259 274 274 283 288 293 236 156 134 134 95 185 215 303 227 203 212 242 251 246 240 243 272 237 195 200 197 216 231 219 188 233 212 201 200 201 245 258 165 194 189 200 193 189 170 172 173 162 164